{"data":{"norad_id":65680,"epoch":"2026-09-19T10:56:59.632800Z","epoch_age_seconds":198938,"freshness":"STALE","line1":"1 65680U 25212E   26262.45624575  .00011838  00000+0  39257-3 0  9992","line2":"2 65680  53.1602 164.6833 0000164 137.0599 223.0415 15.31704350 56928","mean_motion":15.3170435,"eccentricity":1.64e-5,"inclination_deg":53.1602,"raan_deg":164.6833,"arg_perigee_deg":137.0599,"mean_anomaly_deg":223.0415,"bstar":0.00039257,"rev_number":5692,"period_min":94.012920966112,"perigee_km":470.61470676263,"apogee_km":470.83934950275,"semimajor_km":6848.8640281327,"source":"CELESTRAK","updated_at":"2026-09-21T09:00:35.685222Z"}}